FENGYUN 1C DEB, 31535

Orbit data source: Space-Track

FENGYUN 1C DEB, 31535 is space debris in SSO originally from a launch on Mon, 10 May 1999 UTC launched from the Taiyaun Space Center, China (TSC). Fengyun 1C debris stems from the Chinese weather satellite Fengyun-1C, which was intentionally destroyed by a Chinese anti-satellite missile in 2007. This event dramatically increased the amount of space debris, with thousands of trackable fragments posing hazards to satellites and human spaceflight. The Fengyun 1C debris cloud has become a focal point in discussions about space sustainability and the need for international regulations to prevent the creation of new debris.

Loading next visibility...
Identifier
31535, 1999-025BYA
Orbit
SSO
Country
Flag of CNCN / PRC
Related business
Manufacturer
Unknown
Mission
Spacecraft
Bus & Motor
Unknown
Mass
Unknown
Launch date (UTC)
1999-05-10 (27 years ago)
Launch vehicle
Unknown
Launch site
Taiyaun Space Center, China (TSC)
Object type
Payload
Rocket body
Debris
Shape & HBR
Unknown shape, 0.1 m
Radar Cross Section
Small (<0.1 m²)

Expand to show TLE details & history
Last TLE update: 3 weeks ago

TLE from 3 weeks ago
0 FENGYUN 1C DEB
1 31535U 99025BYA 26149.77732844  .00001415  00000-0  55177-3 0  9995
2 31535  98.0178 351.4258 0088881  23.7933 336.7322 14.28888833743306
Epoch: 2026-05-29T18:39Z
TLE epoch observation values (Epoch: 2026-05-29T18:39:21.177Z)
Latitude
0.00009°
Longitude
-175.71529°
Altitude
739.899 km
Speed
7.515 km/s
True Right ascension
23h 25m 42s
True Declination
0° 00' 00"
Sunlit
Object was in daylight at epoch
Visualization orbit readout
Latitude
Unknown
Longitude
Unknown
Altitude
Unknown
Speed
Unknown
Apparent Right ascension
Unknown
Apparent Declination
Unknown
Sunlit
N/A
Visualization observer readout
Local Sidereal Time
07:53:31
Azimuth
Unknown
Elevation
Unknown
Doppler factor
Unknown
Orbital elements
Apogee altitude
856.296 km
Perigee altitude
728.828 km
Semi-major axis
7,170.699 km
Eccentricity
0.00889
Inclination
98.0178°
RAAN
351.4258°
Arg. of periapsis
23.7933°
True anomaly
336.32572°
Mean anomaly
336.7322°
Eccentric anomaly
336.52938°
Mean motion
3.57438 °/min
Orbital period
100.72 mins
BSTAR
0.00055177
Loading maneuver chart data...
Computing Atmospheric mass density...
Loading historical data...
Loading historical data...
Loading historical data...
Loading historical data...
Loading historical data...
Loading historical data...
Loading historical data...

Documentation

Showing up to 5 results
|